Location: ???????
(38.3360°N, 23.6977°E)
Time: 05:17:15
(UTC+00:00)

Cosmos 1400 Rocket - Pass Details

Date: 17 November 2025
Orbit: 476 x 514 km, 81.1° (Epoch: 09 December)

Event Time Altitude Azimuth Distance (km) Brightness Sun altitude
Rises 15:48:03 0° 153° (SSE) 2,618 6.2 -7.6°
Reaches altitude 10° 15:50:40 10° 134° (SE) 1,734 5.1 -8.1°
Maximum altitude 15:53:18 18° 90° (E) 1,302 4.1 -8.6°
Drops below altitude 10° 15:55:57 10° 46° (NE) 1,735 4.8 -9.0°
Enters shadow 15:56:15 - 43° (NE) 1,822 4.9 -9.1°
